COSMOS 252 DEB *

Satellite information

Favourite Embed

Satellite Type and Status

DEBRISIN ORBIT

Key statistics

Satellite COSMOS 252 DEB * at a glance.

Uptime

20862

Days in orbit

Revolutions

≈ 13.2

Per day

Orbit

LEO

Low Earth Orbit

Inclination

61.3

Latest

Satellite identification and parameters

Extended collection of information and parameters for COSMOS 252 DEB *.

Object identification

Identified? True

Debris? True

Object name: COSMOS 252 DEB *

International designator: 1968-097CJ

Object number (NORAD): 5322

Object ID (CCSDS): 5322

Country: COMMONWEALTH OF INDEPENDENT STATES (CIS)

Current information (Y/N): Y

RCS size: SMALL

Orbital parameters

Period: 109.036 minutes

Inclination: 61.3226 deg

SMA: 7560.298 km

Apoapsis: 1704.729 km

Periapsis: 659.598 km

RAAN: 210.6816 deg

Eccentricy: 0.06911969

Argument of periapsis: 230.1669 deg

Mean anomaly: 123.6529 deg

Mean motion: 13.20670116 rev/day

Mean motion (dot): 0.00001564 rev/day2

B* drag term: 0.0011431618 1/REarth

Two-line elements (TLE)

Creation date: Dec. 14, 2025, 3:07 a.m.

Reference frame: TEME

Reference center: EARTH

Epoch: Dec. 13, 2025, 2:14 p.m. UTC

TLE line 0: 0 COSMOS 252 DEB *

TLE line 1: 1 05322U 68097CJ 25347.59307619 .00001564 00000-0 11432-2 0 9992

TLE line 2: 2 05322 61.3226 210.6816 0691197 230.1669 123.6529 13.20670116689310

Live tracking on map

Real-time ground track for satellite COSMOS 252 DEB *.

In-orbit conjunctions

A list of the most updated potential collisions computed for object COSMOS 252 DEB *.

Target Orbit TCA Probability of collision Miss distance Type
FENGYUN 1C DEB SSO 2024-11-09 04:26:33 0.0003039695 638.0 (m) DEBRIS

Associated space launch

The I2P satellites were the first soviet coorbital ASAT system.

COSMOS 252 DEB * was lifted into orbit during the mission ‘Tsiklon-2A | I2P 2’, on board a Tsiklon-2A space rocket.

The launch took place on Nov. 1, 1968, 12:27 a.m. from 90/20.

For more information about the launch, click the button.

Launch to space Tsiklon-2A | I2P 2
Tsiklon-2A | I2P 2

Agency: N/A

Status: Launch Successful

Launch date: Nov. 1, 1968, 12:27 a.m. UTC

Rocket: Tsiklon-2A

Launch pad: 90/20

Location: Baikonur Cosmodrome, Republic of Kazakhstan

...

Latest news about this satellite

There are no fresh news available about this satellite. Check back as we update our databases every day.


Newsletter sign-up

Weekly statistics, charts and insights to help you stay on top of the space industry.